KINEIS-5A

Last updated on Wed Oct 22 2025 00:02:42 GMT+0000 (Coordinated Universal Time)

1 62084U 24219D 25294.60041450 .00001569 00000+0 25612-3 0 9999 2 62084 97.9851 93.7684 0002143 18.0459 342.0824 14.72285736 48667
UTC large
Height (km)
Speed (km/s)
/
Latitude / Longitude
Inclination (degrees)
Orbital Period (minutes)
Azimuth
Elevation
Range (km)
Doppler Factor

Next 0 passes for location: London (51.5072 / 0.1276)

Sorry there are no passes over London.